Home   Weather   Brampton   Past weeks

Flag for Canada Past Weather in Brampton, Ontario, Canada — Yesterday and Last 2 Weeks

Now
23 °F

Scattered clouds.


Feels Like: 18 °F
Forecast: 23 / 29 °F
Wind: 3 mph from North

Location: Toronto Pearson International Airport

Current Time: Dec 9, 2016 at 10:39:24 am

Latest Report: Dec 9, 2016 at 10:00 am


Visibility: 15 mi

Pressure: 30.27 "Hg

Humidity: 74%

Dew Point: 16 °F

Location of BramptonLocation

Past Weather in Brampton — Graph

°F

Brampton Temperature Yesterday

Maximum temperature yesterday: 32 °F (at 6:00 am)
Minimum temperature yesterday: 28 °F (at 4:00 am)
Average temperature yesterday: 30 °F

High & Low Weather Summary for the Past Weeks

 TemperatureHumidityPressure
High57 °F (Nov 29, 1:00 pm)100% (Nov 24, 10:00 am)30.29 "Hg (Nov 24, 10:00 am)
Low21 °F (Dec 9, 5:00 am)45% (Dec 3, 2:00 pm)29.43 "Hg (Nov 30, 10:00 pm)
Average39 °F79%29.97 "Hg
* Reported Nov 24 9:00 am — Dec 9 9:00 am, Brampton, Weather by CustomWeather, © 2016

Note: Actual official high and low records may vary slightly from our data, if they occured in-between our weather recording intervals... More about our weather records

Advertising

Brampton Weather History for the Previous 24 Hours

Scroll right to see more
 ConditionsComfort  
Time TempWeatherWind HumidityBarometerVisibility
9:00 am
Fri, Dec 9
21 °FLight snow. Scattered clouds.9 mph80%30.25 "Hg6 mi
8:00 am21 °FLight snow. Partly sunny.9 mph80%30.24 "Hg6 mi
7:47 am21 °FLight snow. Broken clouds.10 mph80%30.23 "Hg6 mi
7:00 am21 °FPassing clouds.7 mph68%30.20 "Hg15 mi
6:00 am21 °FPassing clouds.9 mph68%30.18 "Hg15 mi
5:00 am21 °FPassing clouds.9 mph68%30.16 "Hg15 mi
4:00 am23 °FPassing clouds.10 mph68%30.14 "Hg15 mi
3:00 am23 °FPassing clouds.8 mph68%30.12 "Hg15 mi
2:00 am25 °FPassing clouds.15 mph69%30.10 "Hg15 mi
1:00 am25 °FPassing clouds.10 mph69%30.08 "Hg15 mi
12:00 am25 °FPassing clouds.10 mph69%30.06 "Hg15 mi
11:00 pm
Thu, Dec 8
28 °FPassing clouds.12 mph64%30.05 "Hg15 mi
10:51 pm28 °FPassing clouds.13 mph64%30.04 "Hg15 mi
10:00 pm28 °FSnow flurries. Passing clouds.13 mph74%30.02 "Hg15 mi
9:04 pm28 °FSnow showers. Ice fog.18 mph86%30.02 "Hg1 mi
8:00 pm28 °FSnow flurries. Mostly cloudy.17 mph74%29.99 "Hg4 mi
7:00 pm28 °FPassing clouds.23 mph69%29.98 "Hg15 mi
6:00 pm28 °FPassing clouds.22 mph69%29.96 "Hg15 mi
5:00 pm28 °FPartly cloudy.22 mph69%29.96 "Hg15 mi
4:00 pm30 °FMore clouds than sun.24 mph59%29.96 "Hg15 mi
3:00 pm30 °FPartly sunny.23 mph55%29.94 "Hg15 mi
2:00 pm30 °FPartly sunny.21 mph55%29.94 "Hg15 mi
1:00 pm30 °FSnow flurries. Broken clouds.21 mph55%29.93 "Hg15 mi
12:00 pm30 °FSnow flurries. Overcast.28 mph59%29.94 "Hg15 mi
11:00 am30 °FSnow flurries. Overcast.16 mph59%29.95 "Hg15 mi
10:00 am30 °FSnow flurries. Mostly cloudy.17 mph64%29.94 "Hg15 mi
Weather by CustomWeather, © 2016

See weather overviewHow to use our weather pages